User: anonymous   Login
Location: Carrer del Canonge
(41.4901°N, 2.2931°E)
Time: 05:30:31
(UTC+00:00)
Language:

MOS 1 Rocket - Orbit

View from above orbital plane
View from above orbital plane
View from above satellite
View from above satellite

Ground track
Ground track

The orbit data is extracted from the following two-line orbital elements,

1 17528U 87018B   20333.52081826 +.00000112 +00000-0 +34189-4 0  9993
2 17528 097.4007 163.3636 0150635 308.6333 050.1459 14.51012000762010
Epoch (UTC): 28 November 2020 12:29:58
Eccentricity: 0.0150635
inclination: 97.4007°
perigee height: 615 km
apogee height: 829 km
right ascension of ascending node: 163.3636°
argument of perigee: 308.6333°
revolutions per day: 14.51012000
mean anomaly at epoch: 50.1459°
orbit number at epoch: 76201

The dashed part of the orbit path shows where the satellite is in the earth's shadow,  

DLR